ALK104 VRMM-VCBI

Flight info

Callsign ALK104
Flight time 1h 21m
Altitude 33000
Route HOKEY M512 TELIG LALUM
Aircraft A320/M-VGDW/C

Departure

Time 2026-05-06 06:16
Airport Velana International Airport (VRMM)

Arrival

Time 2026-05-06 07:37
Airport Bandaranaike International Colombo Airport (VCBI)
Time Latitude Longitude Altitude Speed Heading
2026-05-06 06:04 4.18213 73.52769 12 ft 0 kts 269°
2026-05-06 06:05 4.18213 73.52785 12 ft 3 kts 272°
2026-05-06 06:06 4.18209 73.52802 15 ft 3 kts 304°
2026-05-06 06:06 4.18199 73.52817 17 ft 3 kts 308°
2026-05-06 06:06 4.18189 73.52831 14 ft 2 kts 292°
2026-05-06 06:06 4.18183 73.52848 14 ft 3 kts 303°
2026-05-06 06:07 4.18171 73.52860 14 ft 3 kts 339°
2026-05-06 06:07 4.18162 73.52864 15 ft 0 kts 358°
2026-05-06 06:09 4.18169 73.52863 12 ft 1 kts 358°
2026-05-06 06:10 4.18182 73.52863 12 ft 3 kts 358°
2026-05-06 06:10 4.18220 73.52862 12 ft 8 kts 358°
2026-05-06 06:10 4.18283 73.52860 12 ft 10 kts 358°
2026-05-06 06:10 4.18359 73.52860 12 ft 12 kts
2026-05-06 06:11 4.18427 73.52859 12 ft 4 kts 359°
2026-05-06 06:11 4.18462 73.52859 12 ft 6 kts
2026-05-06 06:11 4.18484 73.52894 12 ft 7 kts 86°
2026-05-06 06:11 4.18501 73.52933 12 ft 6 kts
2026-05-06 06:12 4.18547 73.52933 12 ft 6 kts 51°
2026-05-06 06:12 4.18548 73.52979 12 ft 0 kts 94°
2026-05-06 06:13 4.18548 73.52993 12 ft 5 kts 94°
2026-05-06 06:14 4.18547 73.53042 12 ft 9 kts 89°
2026-05-06 06:14 4.18568 73.53101 13 ft 10 kts 20°
2026-05-06 06:14 4.18607 73.53103 12 ft 0 kts 357°
2026-05-06 06:15 4.18634 73.53101 14 ft 23 kts 357°
2026-05-06 06:15 4.19031 73.53101 13 ft 88 kts
2026-05-06 06:16 4.19822 73.53097 14 ft 138 kts 359°
2026-05-06 06:16 4.20920 73.53083 88 ft 170 kts 356°
2026-05-06 06:16 4.22086 73.53060 729 ft 168 kts 357°
2026-05-06 06:16 4.23257 73.53055 1268 ft 168 kts 358°
2026-05-06 06:17 4.24500 73.53059 1529 ft 189 kts 359°
2026-05-06 06:17 4.25896 73.53069 1702 ft 214 kts 359°
2026-05-06 06:17 4.27481 73.53074 1915 ft 240 kts 358°
2026-05-06 06:17 4.29229 73.53067 2372 ft 258 kts 358°
2026-05-06 06:18 4.31053 73.53052 3139 ft 264 kts 358°
2026-05-06 06:18 4.32892 73.53028 4040 ft 265 kts 358°
2026-05-06 06:18 4.34743 73.53145 4871 ft 270 kts 11°
2026-05-06 06:18 4.36500 73.53834 5578 ft 277 kts 33°
2026-05-06 06:19 4.37862 73.55183 6289 ft 284 kts 56°
2026-05-06 06:19 4.38635 73.57009 7008 ft 288 kts 73°
2026-05-06 06:19 4.39006 73.58988 7780 ft 290 kts 84°
2026-05-06 06:19 4.39146 73.61025 8517 ft 295 kts 85°
2026-05-06 06:20 4.39301 73.63089 9222 ft 299 kts 84°
2026-05-06 06:20 4.39493 73.65175 9873 ft 304 kts 82°
2026-05-06 06:20 4.39893 73.67271 10380 ft 312 kts 76°
2026-05-06 06:20 4.40472 73.69456 10505 ft 334 kts 73°
2026-05-06 06:21 4.41171 73.71745 10703 ft 351 kts 72°
2026-05-06 06:21 4.41920 73.74094 11237 ft 356 kts 71°
2026-05-06 06:21 4.42683 73.76484 11724 ft 362 kts 72°
2026-05-06 06:21 4.43433 73.78896 12337 ft 364 kts 72°
2026-05-06 06:22 4.44162 73.81328 12911 ft 367 kts 73°
2026-05-06 06:22 4.44880 73.83803 13446 ft 371 kts 73°
2026-05-06 06:22 4.45572 73.86280 13944 ft 375 kts 74°
2026-05-06 06:22 4.46264 73.88816 14413 ft 379 kts 74°
2026-05-06 06:23 4.46973 73.91371 14873 ft 383 kts 74°
2026-05-06 06:23 4.47702 73.93954 15344 ft 386 kts 73°
2026-05-06 06:23 4.48448 73.96551 15840 ft 389 kts 73°
2026-05-06 06:23 4.49212 73.99164 16270 ft 394 kts 73°
2026-05-06 06:24 4.49999 74.01816 16700 ft 398 kts 73°
2026-05-06 06:24 4.50801 74.04482 17156 ft 401 kts 73°
2026-05-06 06:24 4.51612 74.07174 17619 ft 405 kts 73°
2026-05-06 06:24 4.52416 74.09888 18098 ft 407 kts 74°
2026-05-06 06:25 4.53214 74.12630 18450 ft 412 kts 74°
2026-05-06 06:25 4.54009 74.15367 18852 ft 415 kts 74°
2026-05-06 06:25 4.55664 74.20932 19772 ft 417 kts 73°
2026-05-06 06:26 4.56506 74.23725 20238 ft 418 kts 73°
2026-05-06 06:26 4.57354 74.26520 20470 ft 422 kts 73°
2026-05-06 06:26 4.58194 74.29349 20668 ft 423 kts 74°
2026-05-06 06:26 4.59002 74.32191 20809 ft 425 kts 75°
2026-05-06 06:27 4.59790 74.35076 20947 ft 434 kts 75°
2026-05-06 06:27 4.60557 74.38005 21124 ft 443 kts 76°
2026-05-06 06:27 4.61315 74.41024 21373 ft 447 kts 76°
2026-05-06 06:27 4.62087 74.44000 22255 ft 436 kts 75°
2026-05-06 06:28 4.62945 74.46913 22788 ft 435 kts 73°
2026-05-06 06:28 4.63851 74.49809 23222 ft 436 kts 72°
2026-05-06 06:28 4.64780 74.52718 23585 ft 438 kts 72°
2026-05-06 06:28 4.65701 74.55596 23919 ft 439 kts 72°
2026-05-06 06:29 4.66635 74.58521 24265 ft 440 kts 72°
2026-05-06 06:29 4.67523 74.61464 24554 ft 442 kts 73°
2026-05-06 06:29 4.68361 74.64444 24884 ft 443 kts 75°
2026-05-06 06:29 4.69166 74.67447 25204 ft 445 kts 75°
2026-05-06 06:30 4.69971 74.70446 25520 ft 446 kts 75°
2026-05-06 06:30 4.70796 74.73445 25833 ft 447 kts 74°
2026-05-06 06:30 4.71649 74.76451 26134 ft 448 kts 73°
2026-05-06 06:30 4.72520 74.79458 26429 ft 450 kts 73°
2026-05-06 06:31 4.73392 74.82442 26714 ft 451 kts 73°
2026-05-06 06:31 4.74275 74.85471 26996 ft 453 kts 73°
2026-05-06 06:31 4.75160 74.88509 27275 ft 454 kts 73°
2026-05-06 06:31 4.76046 74.91551 27555 ft 455 kts 73°
2026-05-06 06:32 4.76931 74.94609 27832 ft 457 kts 73°
2026-05-06 06:32 4.77813 74.97672 28124 ft 458 kts 73°
2026-05-06 06:32 4.78700 75.00752 28417 ft 459 kts 73°
2026-05-06 06:32 4.79579 75.03799 28724 ft 460 kts 73°
2026-05-06 06:33 4.80470 75.06887 29026 ft 461 kts 73°
2026-05-06 06:33 4.81362 75.09986 29327 ft 462 kts 73°
2026-05-06 06:33 4.82256 75.13087 29654 ft 462 kts 73°
2026-05-06 06:33 4.83145 75.16165 30082 ft 459 kts 73°
2026-05-06 06:34 4.84033 75.19240 30479 ft 456 kts 73°
2026-05-06 06:34 4.84899 75.22243 30864 ft 454 kts 73°
2026-05-06 06:34 4.85775 75.25278 31242 ft 452 kts 73°
2026-05-06 06:34 4.86644 75.28306 31619 ft 450 kts 74°
2026-05-06 06:35 4.87511 75.31317 31996 ft 448 kts 74°
2026-05-06 06:35 4.88375 75.34325 32383 ft 446 kts 74°
2026-05-06 06:35 4.89232 75.37311 32749 ft 445 kts 74°
2026-05-06 06:35 4.90092 75.40302 32862 ft 445 kts 74°
2026-05-06 06:36 4.90940 75.43245 32883 ft 445 kts 74°
2026-05-06 06:36 4.92660 75.49210 32881 ft 444 kts 74°
2026-05-06 06:37 4.94376 75.55169 32882 ft 444 kts 74°
2026-05-06 06:37 4.96094 75.61133 32882 ft 445 kts 74°
2026-05-06 06:38 4.97807 75.67094 32882 ft 445 kts 74°
2026-05-06 06:38 4.99511 75.73023 32883 ft 445 kts 74°
2026-05-06 06:39 5.01226 75.78986 32883 ft 445 kts 74°
2026-05-06 06:39 5.02945 75.84963 32882 ft 445 kts 74°
2026-05-06 06:40 5.04644 75.90884 32882 ft 445 kts 74°
2026-05-06 06:40 5.06361 75.96851 32885 ft 445 kts 74°
2026-05-06 06:41 5.08081 76.02820 32881 ft 445 kts 74°
2026-05-06 06:41 5.09791 76.08793 32882 ft 445 kts 74°
2026-05-06 06:42 5.11492 76.14726 32882 ft 445 kts 73°
2026-05-06 06:42 5.13309 76.20660 32887 ft 445 kts 72°
2026-05-06 06:43 5.15175 76.26588 32886 ft 445 kts 72°
2026-05-06 06:43 5.17019 76.32515 32888 ft 445 kts 72°
2026-05-06 06:44 5.18840 76.38445 32880 ft 445 kts 73°
2026-05-06 06:44 5.20341 76.43381 32885 ft 445 kts 73°
2026-05-06 06:45 5.22454 76.50292 32884 ft 445 kts 73°
2026-05-06 06:45 5.23981 76.55265 32883 ft 445 kts 73°
2026-05-06 06:46 5.25786 76.61165 32881 ft 445 kts 73°
2026-05-06 06:46 5.27610 76.67115 32885 ft 445 kts 73°
2026-05-06 06:47 5.29432 76.73045 32878 ft 445 kts 73°
2026-05-06 06:47 5.31252 76.78977 32880 ft 444 kts 73°
2026-05-06 06:48 5.33060 76.84875 32878 ft 444 kts 73°
2026-05-06 06:48 5.34875 76.90812 32880 ft 444 kts 73°
2026-05-06 06:49 5.36691 76.96743 32879 ft 444 kts 73°
2026-05-06 06:49 5.38507 77.02680 32880 ft 444 kts 73°
2026-05-06 06:50 5.40306 77.08570 32879 ft 444 kts 73°
2026-05-06 06:50 5.42118 77.14497 32877 ft 444 kts 73°
2026-05-06 06:51 5.43930 77.20417 32880 ft 444 kts 73°
2026-05-06 06:51 5.45732 77.26319 32881 ft 444 kts 73°
2026-05-06 06:52 5.47546 77.32250 32881 ft 444 kts 73°
2026-05-06 06:52 5.49354 77.38178 32881 ft 444 kts 73°
2026-05-06 06:53 5.51160 77.44112 32880 ft 444 kts 73°
2026-05-06 06:53 5.52965 77.50052 32878 ft 444 kts 73°
2026-05-06 06:54 5.54769 77.55986 32875 ft 444 kts 73°
2026-05-06 06:54 5.56574 77.61885 32874 ft 444 kts 73°
2026-05-06 06:55 5.58383 77.67816 32871 ft 444 kts 73°
2026-05-06 06:55 5.60188 77.73749 32868 ft 444 kts 73°
2026-05-06 06:56 5.61990 77.79679 32864 ft 444 kts 73°
2026-05-06 06:56 5.63795 77.85619 32862 ft 444 kts 73°
2026-05-06 06:57 5.65599 77.91547 32864 ft 444 kts 73°
2026-05-06 06:57 5.67413 77.97442 32862 ft 445 kts 70°
2026-05-06 06:58 5.70425 78.02844 32864 ft 446 kts 52°
2026-05-06 06:58 5.74325 78.07707 32859 ft 447 kts 52°
2026-05-06 06:59 5.78205 78.12587 32856 ft 447 kts 52°
2026-05-06 06:59 5.82078 78.17475 32858 ft 447 kts 52°
2026-05-06 07:00 5.85937 78.22339 32862 ft 448 kts 52°
2026-05-06 07:00 5.89832 78.27242 32858 ft 448 kts 52°
2026-05-06 07:01 5.93719 78.32130 32856 ft 448 kts 52°
2026-05-06 07:01 5.97609 78.37029 32856 ft 448 kts 52°
2026-05-06 07:02 6.01470 78.41896 32853 ft 448 kts 52°
2026-05-06 07:02 6.05361 78.46793 32847 ft 448 kts 52°
2026-05-06 07:03 6.09251 78.51695 32849 ft 448 kts 52°
2026-05-06 07:03 6.13181 78.56570 32851 ft 449 kts 48°
2026-05-06 07:04 6.17894 78.60634 32847 ft 450 kts 39°
2026-05-06 07:04 6.22841 78.64486 32768 ft 450 kts 38°
2026-05-06 07:04 6.25315 78.66411 32517 ft 447 kts 38°
2026-05-06 07:05 6.27775 78.68328 32269 ft 444 kts 38°
2026-05-06 07:05 6.30204 78.70221 31855 ft 440 kts 38°
2026-05-06 07:05 6.32588 78.72080 31344 ft 437 kts 38°
2026-05-06 07:05 6.34988 78.73952 30837 ft 435 kts 38°
2026-05-06 07:06 6.37378 78.75819 30324 ft 433 kts 38°
2026-05-06 07:06 6.39753 78.77674 29794 ft 431 kts 39°
2026-05-06 07:06 6.41953 78.79709 29253 ft 428 kts 49°
2026-05-06 07:06 6.43836 78.82015 28754 ft 424 kts 51°
2026-05-06 07:07 6.45675 78.84319 28258 ft 421 kts 51°
2026-05-06 07:07 6.47482 78.86573 27779 ft 418 kts 51°
2026-05-06 07:07 6.49310 78.88843 27303 ft 416 kts 51°
2026-05-06 07:07 6.51128 78.91100 26833 ft 414 kts 50°
2026-05-06 07:08 6.52941 78.93351 26375 ft 412 kts 50°
2026-05-06 07:08 6.54744 78.95589 25922 ft 411 kts 50°
2026-05-06 07:08 6.56545 78.97830 25479 ft 410 kts 50°
2026-05-06 07:08 6.58313 79.00036 25036 ft 410 kts 50°
2026-05-06 07:09 6.60099 79.02264 24606 ft 410 kts 50°
2026-05-06 07:09 6.61893 79.04500 24145 ft 410 kts 50°
2026-05-06 07:09 6.63713 79.06739 23326 ft 417 kts 49°
2026-05-06 07:09 6.65592 79.08971 22477 ft 413 kts 48°
2026-05-06 07:10 6.67445 79.11126 22038 ft 403 kts 47°
2026-05-06 07:10 6.69283 79.13249 21537 ft 402 kts 47°
2026-05-06 07:10 6.71117 79.15370 21051 ft 401 kts 47°
2026-05-06 07:10 6.72923 79.17467 20556 ft 400 kts 48°
2026-05-06 07:11 6.74736 79.19584 20061 ft 399 kts 48°
2026-05-06 07:11 6.76546 79.21709 19556 ft 399 kts 48°
2026-05-06 07:11 6.78348 79.23833 19055 ft 398 kts 48°
2026-05-06 07:11 6.80150 79.25957 18550 ft 398 kts 48°
2026-05-06 07:12 6.81952 79.28080 18087 ft 396 kts 48°
2026-05-06 07:12 6.83724 79.30167 17503 ft 390 kts 48°
2026-05-06 07:12 6.85462 79.32212 17003 ft 388 kts 48°
2026-05-06 07:12 6.87197 79.34250 16506 ft 386 kts 48°
2026-05-06 07:13 6.88936 79.36288 16065 ft 382 kts 48°
2026-05-06 07:13 6.90666 79.38317 15636 ft 378 kts 48°
2026-05-06 07:13 6.92360 79.40307 15041 ft 370 kts 48°
2026-05-06 07:13 6.94007 79.42243 14570 ft 357 kts 48°
2026-05-06 07:14 6.95598 79.44113 14121 ft 346 kts 48°
2026-05-06 07:14 6.97147 79.45931 13684 ft 340 kts 48°
2026-05-06 07:14 6.98693 79.47745 13199 ft 341 kts 48°
2026-05-06 07:14 7.00221 79.49538 12766 ft 340 kts 48°
2026-05-06 07:15 7.01767 79.51354 12321 ft 339 kts 48°
2026-05-06 07:15 7.03304 79.53159 11882 ft 338 kts 48°
2026-05-06 07:15 7.04838 79.54963 11441 ft 337 kts 48°
2026-05-06 07:15 7.06346 79.56736 11021 ft 336 kts 48°
2026-05-06 07:16 7.07872 79.58527 10618 ft 335 kts 48°
2026-05-06 07:16 7.09370 79.60290 10310 ft 329 kts 49°
2026-05-06 07:16 7.10843 79.62029 10114 ft 321 kts 49°
2026-05-06 07:16 7.12272 79.63716 9992 ft 310 kts 49°
2026-05-06 07:17 7.13647 79.65338 9724 ft 299 kts 49°
2026-05-06 07:17 7.14991 79.66922 9131 ft 295 kts 49°
2026-05-06 07:17 7.16299 79.68462 8668 ft 291 kts 49°
2026-05-06 07:17 7.17610 79.70005 8231 ft 289 kts 49°
2026-05-06 07:18 7.18911 79.71538 7801 ft 287 kts 49°
2026-05-06 07:18 7.20214 79.73071 7371 ft 290 kts 49°
2026-05-06 07:18 7.21523 79.74613 7048 ft 287 kts 49°
2026-05-06 07:18 7.22817 79.76138 6521 ft 286 kts 49°
2026-05-06 07:19 7.24101 79.77650 6070 ft 281 kts 49°
2026-05-06 07:19 7.25364 79.79138 5646 ft 278 kts 50°
2026-05-06 07:19 7.26618 79.80615 5212 ft 276 kts 50°
2026-05-06 07:19 7.27841 79.82059 4807 ft 272 kts 50°
2026-05-06 07:20 7.29061 79.83500 4395 ft 268 kts 50°
2026-05-06 07:20 7.30255 79.84908 3989 ft 261 kts 50°
2026-05-06 07:20 7.31425 79.86288 3600 ft 254 kts 50°
2026-05-06 07:20 7.32537 79.87598 3507 ft 238 kts 50°
2026-05-06 07:21 7.33367 79.88984 3411 ft 226 kts 73°
2026-05-06 07:21 7.33539 79.90505 3313 ft 213 kts 98°
2026-05-06 07:21 7.33119 79.91886 3100 ft 209 kts 121°
2026-05-06 07:21 7.32173 79.93000 2562 ft 211 kts 146°
2026-05-06 07:22 7.30875 79.93694 2043 ft 212 kts 157°
2026-05-06 07:22 7.29564 79.94317 1782 ft 202 kts 156°
2026-05-06 07:22 7.28289 79.94744 1623 ft 183 kts 175°
2026-05-06 07:22 7.27046 79.94716 1534 ft 177 kts 193°
2026-05-06 07:23 7.25970 79.94335 1467 ft 157 kts 208°
2026-05-06 07:23 7.25096 79.93728 1365 ft 150 kts 218°
2026-05-06 07:23 7.24280 79.93102 1238 ft 143 kts 218°
2026-05-06 07:23 7.23482 79.92492 1052 ft 142 kts 217°
2026-05-06 07:24 7.22700 79.91894 868 ft 139 kts 220°
2026-05-06 07:24 7.21924 79.91293 719 ft 141 kts 220°
2026-05-06 07:24 7.21155 79.90689 529 ft 141 kts 219°
2026-05-06 07:24 7.20381 79.90111 370 ft 139 kts 219°
2026-05-06 07:25 7.19611 79.89525 191 ft 140 kts 219°
2026-05-06 07:25 7.18841 79.88929 57 ft 141 kts 218°
2026-05-06 07:25 7.18009 79.88290 646 ft 153 kts 217°
2026-05-06 07:25 7.17282 79.87680 1623 ft 120 kts 224°
2026-05-06 07:26 7.16634 79.87078 2007 ft 137 kts 222°
2026-05-06 07:26 7.15880 79.86426 2536 ft 148 kts 220°
2026-05-06 07:26 7.15077 79.85792 3211 ft 144 kts 219°
2026-05-06 07:26 7.14298 79.85159 3762 ft 150 kts 216°
2026-05-06 07:27 7.13432 79.84506 3982 ft 163 kts 224°
2026-05-06 07:27 7.12930 79.83411 3999 ft 187 kts 267°
2026-05-06 07:27 7.13280 79.82082 4020 ft 211 kts 300°
2026-05-06 07:27 7.14162 79.80811 3995 ft 227 kts 307°
2026-05-06 07:28 7.15148 79.79548 4005 ft 230 kts 308°
2026-05-06 07:28 7.16148 79.78287 4007 ft 231 kts 308°
2026-05-06 07:28 7.18139 79.75781 4007 ft 230 kts 308°
2026-05-06 07:29 7.19141 79.74521 4005 ft 230 kts 308°
2026-05-06 07:29 7.20254 79.73366 4001 ft 230 kts 328°
2026-05-06 07:29 7.21776 79.72907 4005 ft 232 kts
2026-05-06 07:29 7.23312 79.73347 4007 ft 232 kts 31°
2026-05-06 07:30 7.24633 79.74252 4004 ft 233 kts 37°
2026-05-06 07:30 7.25932 79.75242 4004 ft 233 kts 38°
2026-05-06 07:30 7.27218 79.76239 4003 ft 233 kts 38°
2026-05-06 07:30 7.28505 79.77240 4005 ft 233 kts 38°
2026-05-06 07:31 7.29795 79.78243 4004 ft 233 kts 38°
2026-05-06 07:31 7.30645 79.78905 4004 ft 233 kts 38°
2026-05-06 07:31 7.31931 79.79906 4003 ft 233 kts 38°
2026-05-06 07:31 7.33298 79.81503 3767 ft 220 kts 69°
2026-05-06 07:32 7.33579 79.82959 3711 ft 210 kts 94°
2026-05-06 07:32 7.33418 79.83921 3679 ft 208 kts 110°
2026-05-06 07:32 7.32791 79.85224 3500 ft 207 kts 119°
2026-05-06 07:32 7.32107 79.86497 3264 ft 206 kts 120°
2026-05-06 07:33 7.31424 79.87762 3006 ft 205 kts 120°
2026-05-06 07:33 7.30743 79.89018 2757 ft 201 kts 120°
2026-05-06 07:33 7.30094 79.90222 2494 ft 191 kts 120°
2026-05-06 07:33 7.29476 79.91372 2241 ft 182 kts 121°
2026-05-06 07:34 7.28829 79.92408 1991 ft 171 kts 133°
2026-05-06 07:34 7.27951 79.93153 1732 ft 156 kts 152°
2026-05-06 07:34 7.26982 79.93544 1599 ft 146 kts 168°
2026-05-06 07:34 7.25977 79.93634 1484 ft 143 kts 186°
2026-05-06 07:35 7.25008 79.93442 1345 ft 141 kts 201°
2026-05-06 07:35 7.24140 79.92992 1190 ft 140 kts 217°
2026-05-06 07:35 7.23370 79.92400 1027 ft 140 kts 217°
2026-05-06 07:35 7.22598 79.91807 842 ft 138 kts 220°
2026-05-06 07:36 7.21836 79.91207 696 ft 139 kts 219°
2026-05-06 07:36 7.21059 79.90621 507 ft 141 kts 218°
2026-05-06 07:36 7.20282 79.90038 323 ft 138 kts 220°
2026-05-06 07:36 7.19527 79.89448 123 ft 137 kts 219°
2026-05-06 07:37 7.18793 79.88890 30 ft 122 kts 218°
2026-05-06 07:37 7.18255 79.88480 27 ft 72 kts 218°
2026-05-06 07:37 7.17948 79.88245 29 ft 40 kts 215°
2026-05-06 07:37 7.17854 79.88237 30 ft 13 kts 121°
2026-05-06 07:38 7.17792 79.88318 28 ft 16 kts 125°
2026-05-06 07:38 7.17843 79.88393 27 ft 12 kts 30°
2026-05-06 07:38 7.17859 79.88433 27 ft 7 kts 111°
2026-05-06 07:38 7.17825 79.88479 27 ft 9 kts 121°
2026-05-06 07:39 7.17864 79.88517 27 ft 9 kts 35°
2026-05-06 07:39 7.17885 79.88533 27 ft 2 kts 37°
2026-05-06 07:39 7.17889 79.88536 27 ft 0 kts 37°